Flag for Finland Weather past 2 weeks in Pori, Finland

Now
72 °F

Passing clouds.


Feels Like: 75 °F
Forecast: 65 / 76 °F
Wind: 15 mph from Southwest

Location: Pori Airport

Current Time: Aug 1, 2014 at 1:18:58 PM

Latest Report: Aug 1, 2014 at 12:50 PM


Visibility: N/A

Pressure: 29.80 "Hg

Humidity: 65%

Dew point: 59 °F

Location of PoriLocation

Historic Weather in Pori — Graph

°F

Pori temperature yesterday

Maximum temperature yesterday: 73 °F (at 3:50 PM)
Minimum temperature yesterday: 64 °F (at 10:50 PM)
Average temperature yesterday: 69 °F

Past Weeks' High & Low Weather Summary

 TemperatureHumidityPressure
High86 °F (Jul 24, 3:20 PM)100% (Jul 18, 12:20 AM)30.27 "Hg (Jul 18, 12:20 AM)
Low54 °F (Jul 18, 2:20 AM)32% (Jul 21, 12:50 PM)29.56 "Hg (Jul 31, 10:20 AM)
Average70 °F71%30.02 "Hg
* Reported Jul 17 12:20 PM — Aug 1 12:20 PM, Pori, Weather by CustomWeather, © 2014

Note: Actual official high and low records may vary slightly from our data, if they occured in-between our weather recording intervals... More about our weather records

Advertising

Pori weather history for previous 24 hours

 ConditionsComfort  
Time TempWeatherWind HumidityBarometerVisibility
12:20 PM
Aug 1
72 °FPassing clouds.14 mph65%29.80 "HgN/A
11:50 AM72 °FPassing clouds.12 mph61%29.80 "HgN/A
11:20 AM72 °FPassing clouds.12 mph65%29.77 "HgN/A
10:50 AM72 °FBroken clouds.13 mph65%29.77 "HgN/A
10:20 AM73 °FScattered clouds.8 mph65%29.77 "HgN/A
9:50 AM70 °FScattered clouds.12 mph69%29.77 "HgN/A
9:20 AM68 °FPassing clouds.9 mph73%29.74 "HgN/A
8:50 AM68 °FScattered clouds.9 mph78%29.74 "HgN/A
8:20 AM68 °FPassing clouds.8 mph78%29.74 "HgN/A
7:50 AM66 °FPassing clouds.5 mph83%29.74 "HgN/A
7:20 AM64 °FSunny.5 mph88%29.74 "Hg10 mi
6:50 AM63 °FSunny.3 mph88%29.74 "Hg10 mi
6:20 AM63 °FSunny.3 mph88%29.71 "Hg10 mi
5:50 AM61 °FPassing clouds.6 mph88%29.71 "HgN/A
5:20 AM61 °FPassing clouds.6 mph88%29.71 "HgN/A
4:50 AM61 °FPassing clouds.7 mph94%29.71 "HgN/A
4:20 AM61 °FPassing clouds.6 mph88%29.71 "HgN/A
3:50 AM61 °FPassing clouds.6 mph94%29.68 "HgN/A
3:20 AM61 °FClear.5 mph94%29.68 "Hg10 mi
2:50 AM61 °FPassing clouds.6 mph94%29.68 "HgN/A
2:20 AM61 °FClear.6 mph94%29.68 "Hg10 mi
1:50 AM61 °FClear.3 mph94%29.65 "Hg10 mi
1:20 AM63 °FPassing clouds.6 mph88%29.65 "HgN/A
12:50 AM63 °FClear.7 mph88%29.65 "Hg10 mi
12:20 AM63 °FClear.7 mph88%29.65 "Hg10 mi
11:50 PM
Jul 31
64 °FClear.7 mph83%29.65 "Hg10 mi
11:20 PM64 °FClear.6 mph78%29.65 "Hg10 mi
10:50 PM64 °FSunny.6 mph78%29.65 "Hg10 mi
10:20 PM66 °FSunny.6 mph73%29.65 "Hg10 mi
9:50 PM68 °FPassing clouds.7 mph69%29.65 "HgN/A
9:20 PM70 °FPassing clouds.5 mph64%29.62 "HgN/A
8:50 PM72 °FPassing clouds.7 mph57%29.62 "HgN/A
8:20 PM72 °FPassing clouds.7 mph57%29.62 "HgN/A
7:50 PM73 °FPassing clouds.9 mph57%29.62 "HgN/A
7:20 PM73 °FPassing clouds.7 mph57%29.62 "HgN/A
6:50 PM73 °FPassing clouds.10 mph57%29.62 "HgN/A
6:20 PM73 °FPassing clouds.12 mph57%29.62 "HgN/A
5:50 PM73 °FPassing clouds.13 mph61%29.62 "HgN/A
5:20 PM73 °FPassing clouds.12 mph61%29.59 "HgN/A
4:50 PM73 °FPassing clouds.13 mph65%29.59 "HgN/A
4:20 PM73 °FPassing clouds.12 mph61%29.59 "HgN/A
3:50 PM73 °FPassing clouds.10 mph65%29.59 "HgN/A
3:20 PM72 °FPassing clouds.12 mph69%29.59 "HgN/A
2:50 PM72 °FScattered clouds.12 mph69%29.59 "HgN/A
2:20 PM70 °FPassing clouds.8 mph83%29.59 "HgN/A
1:50 PM68 °FBroken clouds.6 mph88%29.56 "HgN/A
1:20 PM68 °FBroken clouds.3 mph94%29.56 "HgN/A
Weather by CustomWeather, © 2014

See weather overviewHow to use our weather pages